Dates,unpd-egm_200010_un_2001_replacementmigration
2022-04-26,1
2022-04-27,0
2022-04-28,0
2022-04-29,0
2022-04-30,0
2022-05-01,0
2022-05-02,0
2022-05-03,0
2022-05-04,0
2022-05-05,0
2022-05-06,0
2022-05-07,0
2022-05-08,0
2022-05-09,0
2022-05-10,0
2022-05-11,0
2022-05-12,0
2022-05-13,0
2022-05-14,0
2022-05-15,0
2022-05-16,0
2022-05-17,0
2022-05-18,1
2022-05-19,0
2022-05-20,0
2022-05-21,0
2022-05-22,0
2022-05-23,0
2022-05-24,0
2022-05-25,0
2022-05-26,0
2022-05-27,0
2022-05-28,0
2022-05-29,0
2022-05-30,0
2022-05-31,0
2022-06-01,0
2022-06-02,0
2022-06-03,0
2022-06-04,0
2022-06-05,0
2022-06-06,0
2022-06-07,0
2022-06-08,0
2022-06-09,0
2022-06-10,0
2022-06-11,0
2022-06-12,0
2022-06-13,0
2022-06-14,0
2022-06-15,0
2022-06-16,0
2022-06-17,0
2022-06-18,0
2022-06-19,0
2022-06-20,0
2022-06-21,0
2022-06-22,0
2022-06-23,0
2022-06-24,0
2022-06-25,0
2022-06-26,0
2022-06-27,0
2022-06-28,0
2022-06-29,0
2022-06-30,0
2022-07-01,0
2022-07-02,0
2022-07-03,0
2022-07-04,0
2022-07-05,0
2022-07-06,0
2022-07-07,0
2022-07-08,0
2022-07-09,0
2022-07-10,0
2022-07-11,0
2022-07-12,0
2022-07-13,0
2022-07-14,0
2022-07-15,0
2022-07-16,0
2022-07-17,0
2022-07-18,0
2022-07-19,0
2022-07-20,0
2022-07-21,0
2022-07-22,0
2022-07-23,0
2022-07-24,0
2022-07-25,0
2022-07-26,0
2022-07-27,0
2022-07-28,0
2022-07-29,0
2022-07-30,0
2022-07-31,0
2022-08-01,0
2022-08-02,0
2022-08-03,0
2022-08-04,0
2022-08-05,0
2022-08-06,0
2022-08-07,0
2022-08-08,0
2022-08-09,0
2022-08-10,0
2022-08-11,0
2022-08-12,0
2022-08-13,0
2022-08-14,0
2022-08-15,0
2022-08-16,0
2022-08-17,0
2022-08-18,0
2022-08-19,0
2022-08-20,0
2022-08-21,0
2022-08-22,0
2022-08-23,0
2022-08-24,0
2022-08-25,0
2022-08-26,0
2022-08-27,0
2022-08-28,0
2022-08-29,0
2022-08-30,0
2022-08-31,0
2022-09-01,0
2022-09-02,0
2022-09-03,0
2022-09-04,1
2022-09-05,0
2022-09-06,0
2022-09-07,0
2022-09-08,0
2022-09-09,0
2022-09-10,0
2022-09-11,0
2022-09-12,0
2022-09-13,0
2022-09-14,0
2022-09-15,0
2022-09-16,0
2022-09-17,0
2022-09-18,0
2022-09-19,0
2022-09-20,0
2022-09-21,0
2022-09-22,0
2022-09-23,0
2022-09-24,0
2022-09-25,0
2022-09-26,0
2022-09-27,0
2022-09-28,0
2022-09-29,0
2022-09-30,0
2022-10-01,0
2022-10-02,0
2022-10-03,0
2022-10-04,0
2022-10-05,0
2022-10-06,0
2022-10-07,0
2022-10-08,0
2022-10-09,0
2022-10-10,0
2022-10-11,0
2022-10-12,0
2022-10-13,0
2022-10-14,0
2022-10-15,0
2022-10-16,0
2022-10-17,0
2022-10-18,0
2022-10-19,0
2022-10-20,1
2022-10-21,0
2022-10-22,0
2022-10-23,0
2022-10-24,0
2022-10-25,0
2022-10-26,0
2022-10-27,0
2022-10-28,0
2022-10-29,0
2022-10-30,0
2022-10-31,1
2022-11-01,1
2022-11-02,0
2022-11-03,0
2022-11-04,0
2022-11-05,0
2022-11-06,0
2022-11-07,0
2022-11-08,0
2022-11-09,0
2022-11-10,2
2022-11-11,0
2022-11-12,0
2022-11-13,1
2022-11-14,1
2022-11-15,0
2022-11-16,0
2022-11-17,2
2022-11-18,4
2022-11-19,0
2022-11-20,0
2022-11-21,2
2022-11-22,0
2022-11-23,1
2022-11-24,0
2022-11-25,0
2022-11-26,0
2022-11-27,0
2022-11-28,0
2022-11-29,2
2022-11-30,0
2022-12-01,0
2022-12-02,0
2022-12-03,0
2022-12-04,0
2022-12-05,0
2022-12-06,1
2022-12-07,1
2022-12-08,0
2022-12-09,0
2022-12-10,1
2022-12-11,0
2022-12-12,0
2022-12-13,0
2022-12-14,0
2022-12-15,1
2022-12-16,0
2022-12-17,0
2022-12-18,0
2022-12-19,0
2022-12-20,2
2022-12-21,0
2022-12-22,0
2022-12-23,0
2022-12-24,0
2022-12-25,0
2022-12-26,0
2022-12-27,0
2022-12-28,0
2022-12-29,0
2022-12-30,0
2022-12-31,0
2023-01-01,0
2023-01-02,0
2023-01-03,0
2023-01-04,0
2023-01-05,0
2023-01-06,0
2023-01-07,0
2023-01-08,0
2023-01-09,1
2023-01-10,0
2023-01-11,2
2023-01-12,0
2023-01-13,0
2023-01-14,0
2023-01-15,0
2023-01-16,0
2023-01-17,0
2023-01-18,0
2023-01-19,1
2023-01-20,0
2023-01-21,0
2023-01-22,0
2023-01-23,0
2023-01-24,0
2023-01-25,1
2023-01-26,0
2023-01-27,0
2023-01-28,0
2023-01-29,0
2023-01-30,0
2023-01-31,0
2023-02-01,2
2023-02-02,0
2023-02-03,1
2023-02-04,1
2023-02-05,0
2023-02-06,1
2023-02-07,0
2023-02-08,1
2023-02-09,0
2023-02-10,0
2023-02-11,0
2023-02-12,1
2023-02-13,0
2023-02-14,0
2023-02-15,0
2023-02-16,0
2023-02-17,0
2023-02-18,1
2023-02-19,1
2023-02-20,0
2023-02-21,0
2023-02-22,0
2023-02-23,0
2023-02-24,0
2023-02-25,0
2023-02-26,2
2023-02-27,0
2023-02-28,3
2023-03-01,0
2023-03-02,5
2023-03-03,1
2023-03-04,0
2023-03-05,0
2023-03-06,0
2023-03-07,0
2023-03-08,1
2023-03-09,0
2023-03-10,0
2023-03-11,3
2023-03-12,0
2023-03-13,2
2023-03-14,0
2023-03-15,0
2023-03-16,0
2023-03-17,0
2023-03-18,1
2023-03-19,1
2023-03-20,1
2023-03-21,0
2023-03-22,0
2023-03-23,0
2023-03-24,0
2023-03-25,0
2023-03-26,0
2023-03-27,1
2023-03-28,6
2023-03-29,2
2023-03-30,0
2023-03-31,2
2023-04-01,0
2023-04-02,0
2023-04-03,1
2023-04-04,0
2023-04-05,0
2023-04-06,1
2023-04-07,1
2023-04-08,0
2023-04-09,0
2023-04-10,0
2023-04-11,0
2023-04-12,3
2023-04-13,0
2023-04-14,0
2023-04-15,0
2023-04-16,0
2023-04-17,0
2023-04-18,2
2023-04-19,3
2023-04-20,2
2023-04-21,1
2023-04-22,1
2023-04-23,0
2023-04-24,1
2023-04-25,4
2023-04-26,0
2023-04-27,0
2023-04-28,0
2023-04-29,0
2023-04-30,0
2023-05-01,0
2023-05-02,0
2023-05-03,2
2023-05-04,0
2023-05-05,1
2023-05-06,0
2023-05-07,2
2023-05-08,5
2023-05-09,1
2023-05-10,0
2023-05-11,1
2023-05-12,1
2023-05-13,1
2023-05-14,1
2023-05-15,0
2023-05-16,3
2023-05-17,1
2023-05-18,1
2023-05-19,7
2023-05-20,4
2023-05-21,1
2023-05-22,0
2023-05-23,0
2023-05-24,2
2023-05-25,1
2023-05-26,2
2023-05-27,0
2023-05-28,0
2023-05-29,0
2023-05-30,2
2023-05-31,4
2023-06-01,2
2023-06-02,0
2023-06-03,0
2023-06-04,2
2023-06-05,0
2023-06-06,2
2023-06-07,0
2023-06-08,1
2023-06-09,0
2023-06-10,0
2023-06-11,0
2023-06-12,0
2023-06-13,0
2023-06-14,0
2023-06-15,1
2023-06-16,1
2023-06-17,0
2023-06-18,5
2023-06-19,1
2023-06-20,0
2023-06-21,2
2023-06-22,0
2023-06-23,1
2023-06-24,2
2023-06-25,0
2023-06-26,1
2023-06-27,0
2023-06-28,0
2023-06-29,0
2023-06-30,0
2023-07-01,0
2023-07-02,0
2023-07-03,0
2023-07-04,0
2023-07-05,4
2023-07-06,0
2023-07-07,1
2023-07-08,0
2023-07-09,0
2023-07-10,0
2023-07-11,0
2023-07-12,0
2023-07-13,0
2023-07-14,0
2023-07-15,0
2023-07-16,0
2023-07-17,0
2023-07-18,1
2023-07-19,5
2023-07-20,0
2023-07-21,0
2023-07-22,0
2023-07-23,0
2023-07-24,0
2023-07-25,0
2023-07-26,0
2023-07-27,0
2023-07-28,1
2023-07-29,0
2023-07-30,0
2023-07-31,3
2023-08-01,1
2023-08-02,0
2023-08-03,2
2023-08-04,0
2023-08-05,0
2023-08-06,0
2023-08-07,0
2023-08-08,0
2023-08-09,1
2023-08-10,1
2023-08-11,0
2023-08-12,0
2023-08-13,0
2023-08-14,1
2023-08-15,0
2023-08-16,2
2023-08-17,0
2023-08-18,0
2023-08-19,0
2023-08-20,1
2023-08-21,1
2023-08-22,0
2023-08-23,0
2023-08-24,0
2023-08-25,0
2023-08-26,0
2023-08-27,1
2023-08-28,0
2023-08-29,0
2023-08-30,1
2023-08-31,0
2023-09-01,0
2023-09-02,0
2023-09-03,0
2023-09-04,1
2023-09-05,1
2023-09-06,0
2023-09-07,1
2023-09-08,2
2023-09-09,0
2023-09-10,1
2023-09-11,2
2023-09-12,0
2023-09-13,2
2023-09-14,0
2023-09-15,1
2023-09-16,1
2023-09-17,0
2023-09-18,0
2023-09-19,3
2023-09-20,7
2023-09-21,10
2023-09-22,8
2023-09-23,1
2023-09-24,0
2023-09-25,0
2023-09-26,3
2023-09-27,2
2023-09-28,6
2023-09-29,11
2023-09-30,6
2023-10-01,7
2023-10-02,4
2023-10-03,4
2023-10-04,3
2023-10-05,8
2023-10-06,3
2023-10-07,2
2023-10-08,0
2023-10-09,0
2023-10-10,3
2023-10-11,1
2023-10-12,4
2023-10-13,2
2023-10-14,3
2023-10-15,0
2023-10-16,0
2023-10-17,1
2023-10-18,1
2023-10-19,0
2023-10-20,0
2023-10-21,1
2023-10-22,0
2023-10-23,1
2023-10-24,0
2023-10-25,0
2023-10-26,0
2023-10-27,0
2023-10-28,0
2023-10-29,1
2023-10-30,2
2023-10-31,0
2023-11-01,3
2023-11-02,0
2023-11-03,0
2023-11-04,1
2023-11-05,2
2023-11-06,2
2023-11-07,2
2023-11-08,0
2023-11-09,0
2023-11-10,1
2023-11-11,0
2023-11-12,0
2023-11-13,1
2023-11-14,1
2023-11-15,1
2023-11-16,1
2023-11-17,1
2023-11-18,2
2023-11-19,0
2023-11-20,0
2023-11-21,0
2023-11-22,1
2023-11-23,2
2023-11-24,0
2023-11-25,2
2023-11-26,1
2023-11-27,1
2023-11-28,1
2023-11-29,4
2023-11-30,6
2023-12-01,4
2023-12-02,1
2023-12-03,0
2023-12-04,7
2023-12-05,4
2023-12-06,1
2023-12-07,6
2023-12-08,7
2023-12-09,1
2023-12-10,4
2023-12-11,1
2023-12-12,3
2023-12-13,2
2023-12-14,1
2023-12-15,2
2023-12-16,2
2023-12-17,5
2023-12-18,3
2023-12-19,0
2023-12-20,0
2023-12-21,2
2023-12-22,8
2023-12-23,13
2023-12-24,51
2023-12-25,30
2023-12-26,18
2023-12-27,32
2023-12-28,24
2023-12-29,9
2023-12-30,10
2023-12-31,4
2024-01-01,3
2024-01-02,1
2024-01-03,0
2024-01-04,3
2024-01-05,2
2024-01-06,0
2024-01-07,0
2024-01-08,1
2024-01-09,0
2024-01-10,1
2024-01-11,0
2024-01-12,0
2024-01-13,2
2024-01-14,4
2024-01-15,4
2024-01-16,4
2024-01-17,3
2024-01-18,4
2024-01-19,4
2024-01-20,0
2024-01-21,3
2024-01-22,5
2024-01-23,4
2024-01-24,6
2024-01-25,2
2024-01-26,0
2024-01-27,1
2024-01-28,12
2024-01-29,4
2024-01-30,7
2024-01-31,13
2024-02-01,35
2024-02-02,14
2024-02-03,9
2024-02-04,10
2024-02-05,9
2024-02-06,4
2024-02-07,3
2024-02-08,5
2024-02-09,5
2024-02-10,3
2024-02-11,4
2024-02-12,0
2024-02-13,7
2024-02-14,2
2024-02-15,2
2024-02-16,0
2024-02-17,7
2024-02-18,3
2024-02-19,3
2024-02-20,5
2024-02-21,3
2024-02-22,1
2024-02-23,6
2024-02-24,0
2024-02-25,7
2024-02-26,4
2024-02-27,4
2024-02-28,10
2024-02-29,5
2024-03-01,4
2024-03-02,3
2024-03-03,1
2024-03-04,5
2024-03-05,2
2024-03-06,0
2024-03-07,1
2024-03-08,1
2024-03-09,1
2024-03-10,4
2024-03-11,11
2024-03-12,4
2024-03-13,17
2024-03-14,5
2024-03-15,2
2024-03-16,2
2024-03-17,4
2024-03-18,2
2024-03-19,8
2024-03-20,5
2024-03-21,0
2024-03-22,7
2024-03-23,1
2024-03-24,2
2024-03-25,4
2024-03-26,3
2024-03-27,13
2024-03-28,3
2024-03-29,2
